Home   Weather   Mason   Past weeks

Flag for USA Past Weather in Mason, Ohio, USA — Yesterday and Last 2 Weeks

Now
29 °F

Overcast.


Feels Like: 21 °F
Forecast: 22 / 30 °F
Wind: 8 mph from West

Location: Butler County Regional Airport

Current Time: Dec 8, 2016 at 7:00:16 am

Latest Report: Dec 8, 2016 at 5:53 am


Visibility: 10 mi

Pressure: 30.24 "Hg

Humidity: 69%

Dew Point: 20 °F

Location of MasonLocation

Past Weather in Mason — Graph

°F

Mason Temperature Yesterday

Maximum temperature yesterday: 39 °F (at 1:53 pm)
Minimum temperature yesterday: 25 °F (at 3:53 am)
Average temperature yesterday: 33 °F

High & Low Weather Summary for the Past Weeks

 TemperatureHumidityPressure
High64 °F (Nov 29, 2:53 pm)97% (Nov 29, 12:53 am)30.43 "Hg (Nov 29, 12:53 am)
Low22 °F (Nov 27, 3:53 am)43% (Nov 23, 3:53 pm)29.46 "Hg (Nov 28, 10:53 pm)
Average42 °F73%30.06 "Hg
* Reported Nov 23 4:53 am — Dec 8 4:53 am, Mason, Weather by CustomWeather, © 2016

Note: Actual official high and low records may vary slightly from our data, if they occured in-between our weather recording intervals... More about our weather records

Advertising

Mason Weather History for the Previous 24 Hours

Scroll right to see more
 ConditionsComfort  
Time TempWeatherWind HumidityBarometerVisibility
4:53 am
Thu, Dec 8
29 °FOvercast.9 mph75%30.22 "Hg10 mi
3:53 am29 °FMostly cloudy.7 mph75%30.22 "Hg10 mi
2:53 am30 °FPassing clouds.7 mph72%30.21 "Hg10 mi
1:53 am31 °FPassing clouds.6 mph73%30.21 "Hg10 mi
12:53 am31 °FClear.7 mph76%30.20 "Hg10 mi
11:53 pm
Wed, Dec 7
34 °FMostly cloudy.14 mph64%30.20 "Hg10 mi
10:53 pm35 °FOvercast.7 mph67%30.19 "Hg10 mi
9:53 pm35 °FMostly cloudy.7 mph70%30.19 "Hg10 mi
8:53 pm35 °FOvercast.7 mph70%30.19 "Hg10 mi
7:53 pm36 °FOvercast.7 mph64%30.18 "Hg10 mi
6:53 pm36 °FOvercast.3 mph62%30.18 "Hg10 mi
5:53 pm37 °FOvercast.5 mph62%30.17 "Hg10 mi
4:53 pm38 °FOvercast.3 mph60%30.16 "HgN/A
3:53 pm39 °FOvercast.N/A53%30.16 "HgN/A
2:53 pm39 °FOvercast.8 mph50%30.16 "Hg10 mi
1:53 pm39 °FOvercast.5 mph53%30.16 "Hg10 mi
12:53 pm38 °FOvercast.6 mph51%30.16 "Hg10 mi
11:53 am37 °FScattered clouds.8 mph54%30.19 "Hg10 mi
10:53 am36 °FSunny.8 mph57%30.22 "Hg10 mi
9:53 am34 °FSunny.7 mph67%30.22 "Hg10 mi
8:53 am31 °FSunny.3 mph79%30.20 "Hg10 mi
7:53 am27 °FSunny.No wind89%30.18 "Hg10 mi
Weather by CustomWeather, © 2016

See weather overviewHow to use our weather pages